Regional Weather Roundup
Issued by NWS

Home | Current Version | Previous Version | Graphics & Text | Print | Product List | Glossary On
Versions: 1 2 3 4 5 6 7 8 9 10 11 12 13 14 15 16 17 18 19 20 21 22 23 24 25 26 27 28 29 30 31 32 33 34 35 36 37 38 39 40 41 42 43 44 45 46 47 48 49 50
000
ASUS43 KTOP 141059
RWRKS

WEATHER ROUNDUP FOR KANSAS
NATIONAL WEATHER SERVICE GOODLAND KS
600 AM CDT MON JUL 14 2014

NOTE:  "FAIR" INDICATES FEW OR NO CLOUDS BELOW 12,000 FEET WITH NO
SIGNIFICANT WEATHER AND/OR OBSTRUCTIONS TO VISIBILITY.

KSZ001>006-013>018-027>032-041>047-141200-
NORTHWEST KANSAS

CITY           SKY/WX    TMP DP  RH WIND       PRES   REMARKS
GOODLAND       CLEAR     63  59  87 W9        30.14S
HAYS           CLEAR     68  59  73 CALM      30.06S
HILL CITY      CLEAR     65  62  90 NW9       30.08R
RUSSELL        CLEAR     67  63  87 NW7       30.04R
$$

KSZ061>065-074>080-084>089-141200-
SOUTHWEST KANSAS

CITY           SKY/WX    TMP DP  RH WIND       PRES   REMARKS
DODGE CITY     MOCLDY    66  60  81 W6        30.09S
ELKHART          N/A     68  63  84 W5          N/A
GARDEN CITY    MOCLDY    64  62  93 N6        30.11S
GREAT BEND     PTCLDY    66  61  82 W6        30.04S
LIBERAL        MOCLDY    68  61  77 N7        30.12F
$$

KSZ066>073-081>083-090>101-141200-
SOUTHEAST KANSAS

CITY           SKY/WX    TMP DP  RH WIND       PRES   REMARKS
CHANUTE        CLEAR     66  64  93 CALM      29.98R
COFFEYVILLE    CLEAR     71  69  93 CALM      29.97R
HUTCHINSON     MOCLDY    68  64  87 CALM      30.02S
MEDICINE LODGE   N/A     70  68  93 CALM      30.03S
NEWTON         MOCLDY    70  63  78 SW3       30.05R
PARSONS        PTCLDY    67  65  93 CALM      29.98R
WICHITA INTL   MOCLDY    71  68  90 W3        30.01R
WICHITA JABRA  MOCLDY    69  66  90 CALM      30.01R
WINFIELD       CLOUDY    72  69  90 CALM      30.02R
$$

KSZ007>012-019>026-033>040-048>060-102>105-141200-
NORTHEAST KANSAS

CITY           SKY/WX    TMP DP  RH WIND       PRES   REMARKS
CONCORDIA      PTCLDY    66  62  87 NW6       30.03R
EMPORIA        PTCLDY    63  62  97 NW3       30.00R
LAWRENCE       CLEAR     67  65  93 CALM      29.97R
MANHATTAN      CLEAR     65  63  93 SW3       29.99S
OLATHE IND     CLEAR     65  64  97 S7        29.98R
OLATHE EXE     CLEAR     67  66  97 CALM      29.97R
SALINA         CLEAR     68  62  81 CALM      30.02R
TOPEKA BILLARD CLEAR     70  67  90 CALM      29.98S
TOPEKA FORBES  CLEAR     67  65  93 SW3       29.98R
$$


USA.gov is the U.S. government's official web portal to all federal, state and local government web resources and services.